Regional Weather Roundup
Issued by NWS Cleveland, OH

Home | Current Version | Previous Version | Graphics & Text | Print | Product List | Glossary On
Versions: 1 2 3 4 5 6 7 8 9 10 11 12 13 14 15 16 17 18 19 20 21 22 23 24 25 26 27 28 29 30 31 32 33 34 35 36 37 38 39 40 41 42 43 44 45 46 47 48 49 50
000
ASUS41 KCLE 310010
RWRCLE
OHIO REGIONAL WEATHER ROUNDUP
NATIONAL WEATHER SERVICE CLEVELAND, OH
800 PM EDT WED JUL 30 2014

NOTE: "FAIR" INDICATES FEW OR NO CLOUDS BELOW 12,000 FEET WITH NO
SIGNIFICANT WEATHER AND/OR OBSTRUCTIONS TO VISIBILITY.

OHZ001>008-015>018-024>027-034-035-043-044-310100-
   NORTHWEST OHIO

CITY           SKY/WX    TMP DP  RH WIND       PRES   REMARKS
DEFIANCE       CLEAR     75  56  51 VRB3      29.99R
FINDLAY        CLEAR     74  56  53 SW7       29.98S
TOLEDO EXPRESS PTCLDY    68  54  60 NW3       29.98S
TOLEDO EXEC    CLOUDY    67  56  67 NW6       29.99R
LIMA           PTCLDY    71  59  65 W7        30.01S
$$

OHZ009>014-019>023-028>033-038-089-310100-
   NORTHEAST OHIO

CITY           SKY/WX    TMP DP  RH WIND       PRES   REMARKS
CLE-HOPKINS    PTCLDY    68  58  70 S9        30.01F
CLE-LAKEFRONT  MOCLDY    71  59  65 CALM      29.98F
CUY CO. ARPT   NOT AVBL
LORAIN-ELYRIA  CLOUDY    72  59  63 S5        30.00S
ASHTABULA      CLEAR     68  57  68 CALM      30.01S
AKRON-CANTON   LGT RAIN  63  57  81 SW6       30.02F
WOOSTER        MOCLDY    64  58  80 S5        30.03S
MANSFIELD      PTCLDY    69  60  73 SW5       30.02R
YOUNGSTOWN     MOCLDY    65  60  84 S3        30.02R
$$

OHZ042-051>053-060>062-070>072-077>081-310100-
  SOUTHWEST OHIO

CITY           SKY/WX    TMP DP  RH WIND       PRES   REMARKS
CINC-COVINGTON MOCLDY    73  59  61 W13       30.05R
CINC-LUNKEN    PTCLDY    75  58  55 W13       30.04R
HAMILTON       PTCLDY    73  61  65 VRB5      30.05R
DAYTON         PTCLDY    73  59  61 W12       30.04S
WRIGHT-PAT AFB PTCLDY    72  62  68 SW8       30.03S
DAYTON GENERAL CLOUDY    72  59  63 W5        30.04R
WILMINGTON     PTCLDY    67  62  84 S5        30.05S
$$

OHZ036-037-039>041-045>050-054>059-063>069-073>076-082>088-310100-
  CENTRAL AND SOUTHEAST OHIO

CITY           SKY/WX    TMP DP  RH WIND       PRES   REMARKS
COLUMBUS       PTCLDY    73  60  63 S6        30.02S
OSU AIRPORT    CLEAR     71  61  70 SW6       30.02R
BOLTON FIELD   CLEAR     67  62  82 SW5       30.03S
RICKENBACK AFB CLEAR     71  57  61 SW8       30.03S
NEWARK         PTCLDY    70  59  68 S7        30.03R
MARION         MOCLDY    73  56  54 W5        30.02R
LANCASTER      MOCLDY    69  60  73 S5        30.04R
ZANESVILLE     MOCLDY    68  58  70 S6        30.04R
NEW PHILLY     MOCLDY    64  62  93 S3        30.04R
$$



USA.gov is the U.S. government's official web portal to all federal, state and local government web resources and services.